Regional Weather Roundup
Issued by NWS

Home | Current Version | Previous Version | Graphics & Text | Print | Product List | Glossary On
Versions: 1 2 3 4 5 6 7 8 9 10 11 12 13 14 15 16 17 18 19 20 21 22 23 24 25 26 27 28 29 30 31 32 33 34 35 36 37 38 39 40 41 42 43 44 45 46 47 48 49 50
000
ASUS43 KDTX 302101
RWRMI
MICHIGAN HOURLY REGIONAL WEATHER ROUNDUP
NATIONAL WEATHER SERVICE DETROIT/PONTIAC MI
500 PM EDT WED JUL 30 2014

NOTE: "FAIR" INDICATES FEW OR NO CLOUDS BELOW 12,000 FEET WITH NO
SIGNIFICANT WEATHER AND/OR OBSTRUCTION TO VISIBILITY.

MIZ047>049-052>055-059>063-066>070-074>076-081>083-302200-
SOUTHEAST LOWER MICHIGAN

CITY           SKY/WX    TMP DP  RH WIND       PRES   REMARKS
ADRIAN         PTSUNNY   76  58  53 N6        29.98F
ALMA           PTSUNNY   74  45  35 CALM      29.97F
ANN ARBOR      MOSUNNY   78  53  41 W6        29.97F
BAD AXE        PTSUNNY   70  51  50 W7        29.98S
CARO           MOSUNNY   75  51  42 W5        29.97S
DETROIT CITY   MOSUNNY   76  56  49 N6        29.97F
DETROIT        PTSUNNY   77  56  48 W10       29.97S
FLINT          CLOUDY    70  55  59 W7        29.98S
GROSSE ILE     MOSUNNY   73  61  64 SE7       29.95F
HILLSDALE      MOSUNNY   76  57  50 W9        29.99S
HOWELL         CLOUDY    62  56  79 N7        29.99R

CITY           SKY/WX    TMP DP  RH WIND       PRES   REMARKS
JACKSON        PTSUNNY   71  59  65 NW3       29.98F
LAMBERTVILLE   MOSUNNY   75  59  57 NW7       29.98S
LANSING        PTSUNNY   69  58  67 N5        29.98F
LAPEER         FAIR      73  47  40 N6        29.98S
MASON          MOSUNNY   71  56  60 N7        29.98S
MONROE         SUNNY     77  55  47 NW9       29.95F
MT. CLEMENS    MOSUNNY   72  59  62 S9        29.95F
PONTIAC        PTSUNNY   73  55  53 NW6       29.97F
PORT HOPE        N/A     64  55  72 NE6       29.97F
PORT HURON     MOSUNNY   73  54  49 NW8       29.97S
TRI CITIES     SUNNY     76  49  38 NW8       29.97F
TROY           PTSUNNY   74  55  51 NW7       29.98F
SAGINAW HB     SUNNY     75  46  35 W9        29.96F
$$
MIZ043>046-050>051-056>058-064>065-071>073-077>080-302200-
SOUTHWEST LOWER MICHIGAN

CITY           SKY/WX    TMP DP  RH WIND       PRES   REMARKS
BATTLE CREEK   MOSUNNY   76  55  48 W14G23    30.00S
BENTON HARBOR  SUNNY     67  58  72 VRB6      30.04S
BIG RAPIDS     MOSUNNY   72  47  40 NW12G21   29.98S
COLDWATER      PTSUNNY   75  56  52 W13       29.99S
FREMONT        FAIR      74  42  31 NW13      30.00S
HOLLAND        SUNNY     68  58  70 W9        30.03F
GRAND RAPIDS   MOSUNNY   75  57  53 W16       30.00S
IONIA          CLOUDY    73  55  53 W9        29.98S
KALAMAZOO      MOSUNNY   75  56  51 NW12      30.01S
LUDINGTON      SUNNY     69  52  54 NW7       30.02S
MARSHALL       MOSUNNY   72  60  67 NW7       29.98F
MOUNT PLEASANT MOSUNNY   75  48  37 W9        29.96F
MUSKEGON       MOSUNNY   72  49  44 NW10      30.01F
SOUTH HAVEN    CLOUDY    64  60  86 NW8       30.04S FOG
$$
MIZ016>042-302200-
NORTHERN LOWER MICHIGAN

CITY           SKY/WX    TMP DP  RH WIND       PRES   REMARKS
ALPENA         PTSUNNY   65  55  70 SE9       29.96S
BEAVER ISLAND  PTSUNNY   64  55  73 SW9       29.99F
BELLAIRE       MOSUNNY   69  46  43 CALM      29.98S
CADILLAC       PTSUNNY   71  53  53 W12       29.98S
CHARLEVOIX     PTSUNNY   65  52  61 W9        30.02S
FRANKFORT      SUNNY     67  51  55 W8        30.01F
GAYLORD        MOSUNNY   66  47  50 NW8       29.98S
GRAYLING       PTSUNNY   70  50  48 W9G16     29.98S
HARBOR SPRINGS PTSUNNY   64  53  67 SW6       29.98F
HOUGHTON LAKE  MOSUNNY   71  47  42 W6        29.97F
MANISTEE       SUNNY     66  52  59 NW9       30.02F
OSCODA         PTSUNNY   64  54  70 E8        29.97S
PELLSTON       PTSUNNY   68  49  50 NW9       29.98S
ROGERS CITY    MOSUNNY   64  53  65 NW8       29.98S
TRAVERSE CITY  MOSUNNY   70  48  45 N13       29.97F
$$
MIZ007>008-015-302200-
EASTERN UPPER MICHIGAN

CITY           SKY/WX    TMP DP  RH WIND       PRES   REMARKS
KINROSS        CLOUDY    61  52  72 NW10      29.98S
MACKINAC ISLAN CLOUDY    62  53  70 W12       29.98S
NEWBERRY       LGT RAIN  59  53  80 NW3       30.00R
S. S. MARIE    CLOUDY    60  49  66 NW9       29.98S
$$
MIZ004>006-011>014-085-302200-
CENTRAL UPPER MICHIGAN

CITY           SKY/WX    TMP DP  RH WIND       PRES   REMARKS
MANISTIQUE     CLOUDY    62  54  73 SW7       29.98S
ESCANABA       MOSUNNY   68  52  56 S12       29.97F
MENOMINEE      PTSUNNY   72  54  53 S9        29.97F
SAWYER-GWINN   LGT RAIN  64  52  63 N3        29.98S
$$
MIZ001>003-009>011-084-302200-
WESTERN UPPER MICHIGAN

CITY           SKY/WX    TMP DP  RH WIND       PRES   REMARKS
IRON MOUNTAIN  MOSUNNY   74  44  34 W9        29.96F
HOUGHTON       CLOUDY    60  54  80 W13       29.97S
COPPER HARBOR    N/A     65  55  70 NW6       29.95S
$$

ABBREVIATIONS USED IN REMARKS
   TC - TEMPERATURE IN CELSIUS
  WCI - WIND CHILL INDEX
   HX - HEAT INDEX
  VSB - VISIBILITY



USA.gov is the U.S. government's official web portal to all federal, state and local government web resources and services.